Tracking 22441 objects as of 28-Feb-2021
HD Live streaming from Space Station
objects crossing your sky now

DELTA 1 DEB

Track DELTA 1 DEB now!
10-day predictions


NORAD ID: 21466
Int'l Code: 1975-052FA
Perigee: 1,083.7 km
Apogee: 1,290.5 km
Inclination: 99.8 °
Period: 109.0 minutes
Semi major axis: 7558 km
RCS: 0.0199 m2 (small)
Launch date: June 12, 1975
Source: United States (US)
Launch site: AIR FORCE WESTERN TEST RANGE (AFWTR)

Note: This is SATELLITE DEBRIS
aabbcc
Your satellite tracking list
Your tracking list is empty




NASA's NSSDC Master Catalog

Two Line Element Set (TLE):
1 21466U 75052FA  21059.26087326  .00000129  00000-0  39384-3 0  9991
2 21466  99.7801 339.0108 0136815  14.9868 139.0916 13.21246227436348
Source of the keplerian elements: AFSPC